Flag for Germany Weather past 2 weeks in Castrop-Rauxel, North Rhine-Westphalia, Germany

Now
46 °F

Sprinkles. Passing clouds.


Feels Like: 39 °F
Forecast: 42 / 51 °F
Wind: 20 mph from West

Location: Dortmund / Wickede

Current Time: Oct 21, 2014 at 10:25:16 PM

Latest Report: Oct 21, 2014 at 9:50 PM


Visibility: N/A

Pressure: 29.65 "Hg

Humidity: 76%

Dew point: 39 °F

Location of Castrop-RauxelLocation

Historic Weather in Castrop-Rauxel — Graph

°F

Castrop-Rauxel temperature yesterday

Maximum temperature yesterday: 61 °F (at 1:50 PM)
Minimum temperature yesterday: 54 °F (at 10:20 PM)
Average temperature yesterday: 57 °F

Past Weeks' High & Low Weather Summary

 TemperatureHumidityPressure
High73 °F (Oct 19, 2:20 PM)94% (Oct 11, 7:50 AM)30.12 "Hg (Oct 11, 7:50 AM)
Low46 °F (Oct 21, 9:20 PM)49% (Oct 10, 2:50 PM)29.47 "Hg (Oct 21, 4:20 PM)
Average58 °F75%29.82 "Hg
* Reported Oct 6 9:20 PM — Oct 21 9:20 PM, Castrop-Rauxel, Weather by CustomWeather, © 2014

Note: Actual official high and low records may vary slightly from our data, if they occured in-between our weather recording intervals... More about our weather records

Advertising

Castrop-Rauxel weather history for previous 24 hours

 ConditionsComfort  
Time TempWeatherWind HumidityBarometerVisibility
9:20 PM
Oct 21
46 °FSprinkles. Passing clouds.14 mph82%29.65 "HgN/A
8:50 PM48 °FSprinkles. Passing clouds.20 mph71%29.62 "HgN/A
8:20 PM48 °FSprinkles. Passing clouds.18 mph76%29.62 "HgN/A
7:50 PM48 °FPassing clouds.16 mph82%29.59 "HgN/A
7:20 PM50 °FSprinkles. Partly sunny.18 mph76%29.56 "HgN/A
6:50 PM48 °FSprinkles. Scattered clouds.17 mph87%29.56 "Hg5 mi
6:20 PM50 °FScattered showers. Broken clouds.17 mph82%29.53 "Hg5 mi
5:50 PM52 °FScattered showers. Partly sunny.18 mph82%29.53 "HgN/A
5:20 PM52 °FDrizzle. Broken clouds.24 mph82%29.47 "Hg5 mi
4:50 PM54 °FDrizzle. Broken clouds.16 mph82%29.47 "Hg4 mi
4:20 PM54 °FScattered showers. Broken clouds.17 mph82%29.47 "Hg4 mi
3:50 PM54 °FScattered showers. Partly sunny.18 mph82%29.50 "Hg5 mi
3:20 PM54 °FDrizzle. Partly sunny.22 mph82%29.53 "Hg4 mi
2:50 PM52 °FPartly sunny.18 mph88%29.53 "HgN/A
2:20 PM54 °FSprinkles. Partly sunny.22 mph77%29.56 "Hg6 mi
1:50 PM54 °FSprinkles. Scattered clouds.20 mph77%29.59 "HgN/A
1:20 PM54 °FSprinkles. Partly sunny.20 mph77%29.62 "HgN/A
12:50 PM55 °FPartly sunny.20 mph72%29.65 "HgN/A
12:20 PM55 °FScattered clouds.21 mph72%29.65 "HgN/A
11:50 AM54 °FPartly sunny.20 mph77%29.68 "HgN/A
11:20 AM55 °FScattered clouds.20 mph67%29.68 "HgN/A
10:50 AM54 °FSunny.16 mph77%29.71 "Hg10 mi
10:20 AM54 °FPartly sunny.16 mph77%29.74 "HgN/A
9:50 AM54 °FSunny.16 mph77%29.74 "Hg10 mi
9:20 AM54 °FPartly sunny.15 mph77%29.77 "HgN/A
8:50 AM54 °FPassing clouds.13 mph77%29.77 "HgN/A
8:20 AM54 °FScattered showers. Passing clouds.12 mph82%29.77 "HgN/A
7:50 AM54 °FPassing clouds.12 mph82%29.80 "HgN/A
7:20 AM54 °FPassing clouds.14 mph82%29.80 "HgN/A
6:50 AM52 °FPassing clouds.12 mph88%29.80 "HgN/A
6:20 AM52 °FClear.13 mph82%29.83 "Hg10 mi
5:50 AM52 °FPassing clouds.13 mph82%29.83 "HgN/A
5:20 AM52 °FPassing clouds.13 mph82%29.86 "HgN/A
10:50 PM
Oct 20
54 °FPassing clouds.10 mph88%29.95 "HgN/A
10:20 PM54 °FPassing clouds.8 mph88%29.95 "HgN/A
Weather by CustomWeather, © 2014

See weather overviewHow to use our weather pages